Weather History for Prestonsburg, KY

Change the Weather History Date:

Wednesday, February 27, 2013

  Actual Average (KJKL) Record (KJKL)
Temperature  
Mean Temperature 38 °F 42 °F  
Max Temperature 44 °F 51 °F 75 °F (1996)
Min Temperature 33 °F 33 °F 11 °F (1994)
Degree Days  
Heating Degree Days 26 23  
Month to date heating degree days 711  
Since 1 July heating degree days 3277  
Cooling Degree Days 0 0  
Month to date cooling degree days 0  
Year to date cooling degree days 0  
Moisture  
Dew Point 33 °F    
Average Humidity 79    
Maximum Humidity 95    
Minimum Humidity 66    
Precipitation  
Precipitation 0.00 in 0.14 in 0.90 in (1987)
Month to date precipitation 3.62  
Year to date precipitation 7.23  
Snow  
Snow 0.00 in 0.20 in - ()
Month to date snowfall 6.8  
Since 1 July snowfall 19.4  
Snow Depth -    
Sea Level Pressure  
Sea Level Pressure 29.72 in    
Wind  
Wind Speed 10 mph (WSW)    
Max Wind Speed 16 mph    
Max Gust Speed 29 mph    
Visibility 10 miles    
Events Rain , Snow    
T = Trace of Precipitation, MM = Missing Value Source: NWS Daily Summary

Daily Weather History Graph

Daily Weather History Graph

Search for Another Location

Airport:

Trip Planner

Search our weather history database for the weather conditions in past years. The results will help you decide how hot, cold, wet, or windy it might be!

Date:

Astronomy

Feb. 27, 2013 Rise Set
Actual Time 7:04 AM EST 6:22 PM EST
Civil Twilight 6:38 AM EST 6:48 PM EST
Nautical Twilight 6:07 AM EST 7:19 PM EST
Astronomical Twilight 5:37 AM EST 7:49 PM EST
Moon 8:38 PM EST 7:42 AM EST
Length of Visible Light 12h 10m
Length of Day
11h 17m
Waning Gibbous, 96% of the Moon is Illuminated
Feb 27
Waning Gibbous
Mar 4
Last Quarter
Mar 11
New
Mar 19
First Quarter
Mar 27
Full

Hourly Weather History & Observations

Time (EST) Temp. Windchill Dew Point Humidity Pressure Visibility Wind Dir Wind Speed Gust Speed Precip Events Conditions
12:15 AM 44.8 °F 39.9 °F 34.7 °F 68% 29.59 in 10.0 mi WSW 9.2 mph 18.4 mph N/A   Overcast
12:35 AM 44.8 °F 39.9 °F 34.3 °F 67% 29.59 in 10.0 mi WSW 9.2 mph 17.3 mph N/A   Overcast
12:55 AM 44.2 °F 38.8 °F 33.6 °F 66% 29.59 in 10.0 mi West 10.4 mph 18.4 mph N/A   Overcast
1:15 AM 44.1 °F 39.5 °F 33.6 °F 67% 29.60 in 10.0 mi WSW 8.1 mph - N/A   Overcast
1:35 AM 44.1 °F 38.6 °F 33.8 °F 67% 29.60 in 10.0 mi WSW 10.4 mph 16.1 mph N/A   Overcast
1:55 AM 43.9 °F 37.9 °F 34.0 °F 68% 29.60 in 10.0 mi WSW 11.5 mph 17.3 mph N/A   Light Drizzle
2:15 AM 41.0 °F 35.8 °F 34.7 °F 78% 29.63 in 10.0 mi West 8.1 mph 28.8 mph N/A   Light Drizzle
2:35 AM 41.0 °F 34.7 °F 35.6 °F 81% 29.63 in 10.0 mi West 10.4 mph 19.6 mph N/A   Light Drizzle
2:55 AM 40.1 °F 33.2 °F 35.8 °F 85% 29.63 in 10.0 mi WSW 11.5 mph 19.6 mph N/A Rain Rain
3:15 AM 39.7 °F 33.2 °F 35.6 °F 85% 29.63 in 10.0 mi WSW 10.4 mph - N/A   Overcast
3:35 AM 39.7 °F 33.2 °F 34.9 °F 83% 29.63 in 10.0 mi West 10.4 mph 16.1 mph N/A   Overcast
3:55 AM 39.7 °F 33.7 °F 34.7 °F 82% 29.64 in 10.0 mi West 9.2 mph - N/A   Overcast
4:35 AM 39.7 °F 34.9 °F 34.7 °F 82% 29.65 in 10.0 mi West 6.9 mph - N/A   Overcast
4:55 AM 39.4 °F 36.1 °F 34.9 °F 84% 29.66 in 10.0 mi West 4.6 mph - N/A   Light Drizzle
5:35 AM 39.4 °F 35.2 °F 34.7 °F 83% 29.67 in 10.0 mi SW 5.8 mph - N/A   Overcast
5:55 AM 39.2 °F 33.6 °F 34.7 °F 84% 29.67 in 10.0 mi WSW 8.1 mph - N/A   Overcast
6:15 AM 39.7 °F 34.3 °F 34.0 °F 80% 29.67 in 10.0 mi WSW 8.1 mph 17.3 mph N/A   Overcast
6:35 AM 39.7 °F 33.2 °F 33.6 °F 79% 29.68 in 10.0 mi WSW 10.4 mph - N/A   Overcast
6:55 AM 39.2 °F 33.0 °F 34.0 °F 82% 29.69 in 10.0 mi WSW 9.2 mph 17.3 mph N/A   Overcast
7:15 AM 39.4 °F 32.3 °F 33.8 °F 80% 29.69 in 10.0 mi WSW 11.5 mph 18.4 mph N/A   Overcast
7:35 AM 39.6 °F 33.0 °F 33.4 °F 79% 29.71 in 10.0 mi WSW 10.4 mph 19.6 mph N/A   Overcast
8:15 AM 39.7 °F 33.2 °F 32.5 °F 75% 29.73 in 10.0 mi WSW 10.4 mph 16.1 mph N/A   Overcast
8:35 AM 39.7 °F 31.5 °F 32.9 °F 77% 29.74 in 10.0 mi WSW 15.0 mph 19.6 mph N/A   Overcast
8:55 AM 39.6 °F 34.0 °F 32.9 °F 77% 29.74 in 10.0 mi SW 8.1 mph - N/A   Overcast
9:15 AM 39.4 °F 33.8 °F 33.1 °F 78% 29.75 in 10.0 mi WSW 8.1 mph 17.3 mph N/A   Drizzle
9:35 AM 39.7 °F 34.9 °F 32.9 °F 77% 29.75 in 10.0 mi WSW 6.9 mph 18.4 mph N/A   Overcast
9:55 AM 40.1 °F 33.6 °F 32.9 °F 75% 29.75 in 10.0 mi SW 10.4 mph - N/A   Overcast
10:15 AM 40.1 °F 35.3 °F 32.9 °F 75% 29.76 in 10.0 mi WSW 6.9 mph - N/A   Overcast
10:35 AM 40.1 °F 34.7 °F 32.7 °F 75% 29.76 in 10.0 mi West 8.1 mph 17.3 mph N/A   Overcast
10:55 AM 40.1 °F 35.3 °F 32.7 °F 75% 29.76 in 10.0 mi WSW 6.9 mph 16.1 mph N/A   Overcast
11:15 AM 41.0 °F 34.3 °F 32.7 °F 72% 29.75 in 10.0 mi WSW 11.5 mph 17.3 mph N/A   Overcast
11:35 AM 41.0 °F 35.8 °F 32.9 °F 73% 29.76 in 10.0 mi West 8.1 mph - N/A   Overcast
11:55 AM 40.3 °F 33.9 °F 33.1 °F 75% 29.75 in 10.0 mi SW 10.4 mph - N/A   Overcast
12:15 PM 40.1 °F 32.4 °F 33.6 °F 78% 29.75 in 10.0 mi WSW 13.8 mph 20.7 mph N/A   Overcast
12:35 PM 40.1 °F 32.7 °F 33.3 °F 77% 29.74 in 10.0 mi SW 12.7 mph 18.4 mph N/A   Overcast
12:55 PM 40.3 °F 33.4 °F 33.3 °F 76% 29.73 in 10.0 mi SW 11.5 mph 17.3 mph N/A   Overcast
1:15 PM 40.5 °F 33.2 °F 33.3 °F 75% 29.73 in 10.0 mi WSW 12.7 mph 17.3 mph N/A   Overcast
1:35 PM 40.8 °F 35.0 °F 32.0 °F 71% 29.72 in 10.0 mi WSW 9.2 mph 17.3 mph N/A   Overcast
1:55 PM 40.1 °F 33.2 °F 32.5 °F 74% 29.72 in 10.0 mi WSW 11.5 mph 23.0 mph N/A   Overcast
2:15 PM 40.5 °F 32.5 °F 32.2 °F 72% 29.72 in 10.0 mi SW 15.0 mph 19.6 mph N/A   Overcast
2:35 PM 40.5 °F 32.1 °F 32.0 °F 72% 29.72 in 10.0 mi WSW 16.1 mph 24.2 mph N/A   Overcast
2:55 PM 40.6 °F 33.4 °F 32.0 °F 71% 29.72 in 10.0 mi WSW 12.7 mph 18.4 mph N/A   Overcast
3:15 PM 40.3 °F 33.0 °F 32.2 °F 73% 29.72 in 10.0 mi SW 12.7 mph 19.6 mph N/A   Overcast
3:35 PM 40.1 °F 32.0 °F 32.5 °F 74% 29.72 in 10.0 mi SW 15.0 mph 19.6 mph N/A   Overcast
3:55 PM 40.1 °F 33.6 °F 32.2 °F 73% 29.72 in 10.0 mi WSW 10.4 mph - N/A   Overcast
4:15 PM 40.1 °F 34.7 °F 32.0 °F 73% 29.73 in 10.0 mi WSW 8.1 mph 20.7 mph N/A   Overcast
4:35 PM 40.3 °F 34.4 °F 32.0 °F 72% 29.73 in 10.0 mi WSW 9.2 mph - N/A   Overcast
4:55 PM 40.1 °F 33.6 °F 32.0 °F 73% 29.73 in 10.0 mi West 10.4 mph 19.6 mph N/A   Overcast
5:15 PM 40.1 °F 34.7 °F 31.8 °F 72% 29.74 in 10.0 mi West 8.1 mph 17.3 mph N/A   Overcast
5:35 PM 39.7 °F 35.6 °F 32.0 °F 74% 29.74 in 10.0 mi WSW 5.8 mph - N/A   Light Drizzle
5:55 PM 39.7 °F 34.3 °F 32.0 °F 74% 29.74 in 10.0 mi WSW 8.1 mph 16.1 mph N/A   Overcast
6:15 PM 38.5 °F 31.1 °F 32.4 °F 79% 29.75 in 5.0 mi West 11.5 mph 18.4 mph N/A   Drizzle
6:35 PM 37.8 °F 31.3 °F 32.9 °F 83% 29.76 in 10.0 mi West 9.2 mph 19.6 mph N/A   Overcast
6:55 PM 37.4 °F 32.1 °F 33.3 °F 85% 29.76 in 10.0 mi West 6.9 mph 16.1 mph N/A   Overcast
7:15 PM 36.9 °F 30.1 °F 33.6 °F 88% 29.77 in 7.0 mi WSW 9.2 mph 18.4 mph N/A   Overcast
7:35 PM 36.3 °F 28.4 °F 34.0 °F 91% 29.78 in 7.0 mi WSW 11.5 mph 16.1 mph N/A   Overcast
7:55 PM 35.6 °F 28.0 °F 33.8 °F 93% 29.78 in 5.0 mi West 10.4 mph - N/A   Overcast
8:15 PM 35.2 °F 31.2 °F 33.8 °F 94% 29.79 in 10.0 mi West 4.6 mph - N/A   Overcast
8:35 PM 35.1 °F 31.0 °F 33.8 °F 95% 29.79 in 10.0 mi WSW 4.6 mph - N/A   Overcast
9:15 PM 34.9 °F 27.7 °F 33.1 °F 93% 29.78 in 10.0 mi WSW 9.2 mph 16.1 mph N/A   Overcast
9:35 PM 34.7 °F 29.6 °F 32.9 °F 93% 29.78 in 10.0 mi West 5.8 mph - N/A   Overcast
9:55 PM 34.7 °F 28.1 °F 32.9 °F 93% 29.78 in 10.0 mi WSW 8.1 mph - N/A   Overcast
10:15 PM 34.7 °F 26.4 °F 32.5 °F 92% 29.77 in 10.0 mi WSW 11.5 mph - N/A   Overcast
10:35 PM 34.3 °F 28.4 °F 32.5 °F 93% 29.78 in 5.0 mi WSW 6.9 mph - N/A   Overcast
10:55 PM 34.2 °F 30.0 °F 32.9 °F 95% 29.77 in 10.0 mi WSW 4.6 mph - N/A Snow Light Snow
11:15 PM 34.2 °F 26.8 °F 32.2 °F 92% 29.78 in 10.0 mi WSW 9.2 mph - N/A   Overcast
11:35 PM 33.8 °F 27.7 °F 32.0 °F 93% 29.78 in 10.0 mi West 6.9 mph - N/A Snow Light Snow
11:55 PM 33.8 °F 27.0 °F 31.5 °F 91% 29.77 in 10.0 mi WSW 8.1 mph - N/A   Overcast